FW8483 Weather Reports


time (UTC)temp
F
wind
direction
speed
knots
gust
knots
rain 1hr
in
rain 24hr
in
rain mn
in
humidity
%
barometer
mb
20260504034522 52 74 0.0 0.0 0.00 0.00 0.00 90 1018.7
20260504034011 52 74 0.0 0.0 0.00 0.00 0.00 89 1018.7
20260504033508 53 74 0.0 0.0 0.00 0.00 0.00 89 1018.8
20260504033029 53 74 0.0 0.0 0.00 0.00 0.00 88 1018.8
20260504032513 53 74 0.0 0.0 0.00 0.00 0.00 89 1018.7
20260504032011 53 74 0.0 0.0 0.00 0.00 0.00 89 1018.7
20260504031530 54 74 0.0 0.0 0.00 0.00 0.00 88 1018.8
20260504031008 54 74 0.0 0.0 0.00 0.00 0.00 88 1018.8
20260504030504 54 74 0.0 0.0 0.00 0.00 0.00 88 1018.8
20260504030021 54 74 0.0 0.0 0.00 0.00 0.00 86 1018.7
20260504025505 54 74 0.0 0.0 0.00 0.00 0.00 87 1018.7
20260504025005 55 74 0.0 0.9 0.00 0.00 0.00 87 1018.8
20260504024520 55 74 0.0 1.7 0.00 0.00 0.00 84 1018.8
20260504024008 55 74 0.9 1.7 0.00 0.00 0.00 82 1018.7
20260504023507 55 74 0.9 1.7 0.00 0.00 0.00 79 1018.7
20260504023026 56 49 0.0 0.0 0.00 0.00 0.00 78 1018.7
20260504022509 56 344 0.0 0.0 0.00 0.00 0.00 77 1018.7
20260504022010 57 344 0.0 0.0 0.00 0.00 0.00 75 1018.6
20260504021528 58 344 0.0 0.0 0.00 0.00 0.00 75 1018.6
20260504021009 58 344 0.0 0.0 0.00 0.00 0.00 74 1018.6
20260504020511 58 344 0.0 0.0 0.00 0.00 0.00 70 1018.5
20260504020027 58 344 0.0 0.0 0.00 0.00 0.00 70 1018.5
20260504015505 58 344 0.0 0.0 0.00 0.00 0.00 70 1018.5
20260504015006 59 344 0.0 0.0 0.00 0.00 0.00 71 1018.4
20260504014520 59 344 0.0 0.0 0.00 0.00 0.00 71 1018.3
20260504014002 59 344 0.0 0.0 0.00 0.00 0.00 71 1018.1
20260504013503 60 344 0.0 0.0 0.00 0.00 0.00 67 1018.0
20260504013006 60 344 0.0 0.0 0.00 0.00 0.00 66 1017.9
20260504012503 61 344 0.0 0.0 0.00 0.00 0.00 65 1017.8
20260504012003 62 344 0.0 0.0 0.00 0.00 0.00 65 1017.9
20260504011508 63 344 0.0 0.0 0.00 0.00 0.00 63 1017.8
20260504011004 64 344 0.0 1.7 0.00 0.00 0.00 58 1017.8
20260504010505 64 344 0.0 1.7 0.00 0.00 0.00 57 1017.9
20260504010012 64 313 0.0 2.6 0.00 0.00 0.00 59 1017.8
20260504005504 65 311 0.0 2.6 0.00 0.00 0.00 56 1017.8
20260504005005 65 318 0.9 1.7 0.00 0.00 0.00 53 1017.7
20260504004518 66 302 0.0 1.7 0.00 0.00 0.00 52 1017.7
20260504004008 66 309 0.0 1.7 0.00 0.00 0.00 51 1017.7
20260504003507 66 320 0.0 1.7 0.00 0.00 0.00 51 1017.6
20260504003003 67 313 0.0 1.7 0.00 0.00 0.00 51 1017.5
20260504002503 67 307 0.0 1.7 0.00 0.00 0.00 50 1017.4
20260504002003 68 307 0.0 1.7 0.00 0.00 0.00 50 1017.4
20260504001504 68 306 0.9 0.9 0.00 0.00 0.00 46 1017.4
20260504001003 69 292 0.0 1.7 0.00 0.00 0.00 46 1017.3
20260504000504 70 73 0.0 1.7 0.00 0.00 0.00 46 1017.4
20260504000024 71 13 0.0 1.7 0.00 0.00 0.00 44 1017.3
20260503235506 72 211 0.0 1.7 0.00 0.00 0.00 43 1017.3
20260503235003 73 121 0.0 1.7 0.00 0.00 0.00 41 1017.3
20260503234516 73 63 0.0 2.6 0.00 0.00 0.00 40 1017.2
20260503234004 74 236 0.0 2.6 0.00 0.00 0.00 36 1017.2
20260503233505 75 345 1.7 2.6 0.00 0.00 0.00 35 1017.2
20260503233018 75 331 0.0 1.7 0.00 0.00 0.00 35 1017.2
20260503232507 75 336 0.9 2.6 0.00 0.00 0.00 36 1017.2
20260503232003 75 5 0.9 2.6 0.00 0.00 0.00 34 1017.2
20260503231505 75 13 0.9 3.5 0.00 0.00 0.00 33 1017.2
20260503231003 75 5 1.7 3.5 0.00 0.00 0.00 35 1017.2
20260503230503 75 292 0.9 2.6 0.00 0.00 0.00 33 1017.3
20260503230009 75 11 1.7 2.6 0.00 0.00 0.00 33 1017.3
20260503225504 75 92 1.7 3.5 0.00 0.00 0.00 31 1017.3
20260503225006 75 103 0.9 5.2 0.00 0.00 0.00 33 1017.3
20260503224514 75 323 2.6 5.2 0.00 0.00 0.00 32 1017.3
20260503224004 75 272 3.5 5.2 0.00 0.00 0.00 32 1017.3
20260503223504 75 320 2.6 8.7 0.00 0.00 0.00 31 1017.3
20260503223019 76 329 2.6 8.7 0.00 0.00 0.00 32 1017.4
20260503222504 76 348 1.7 7.8 0.00 0.00 0.00 33 1017.4
20260503222008 76 288 3.5 7.8 0.00 0.00 0.00 33 1017.3
20260503221522 76 284 5.2 7.0 0.00 0.00 0.00 31 1017.4
20260503221004 76 293 1.7 4.3 0.00 0.00 0.00 32 1017.3
20260503220504 75 263 0.9 5.2 0.00 0.00 0.00 34 1017.4
20260503220008 75 98 1.7 7.0 0.00 0.00 0.00 32 1017.4
20260503215504 75 271 1.7 7.0 0.00 0.00 0.00 32 1017.4
20260503215002 75 285 3.5 7.8 0.00 0.00 0.00 33 1017.4
20260503214511 75 286 4.3 8.7 0.00 0.00 0.00 32 1017.4
20260503214008 76 276 5.2 8.7 0.00 0.00 0.00 32 1017.4
20260503213504 76 265 2.6 6.1 0.00 0.00 0.00 32 1017.5
20260503213016 76 67 0.9 3.5 0.00 0.00 0.00 32 1017.6
20260503212507 76 31 0.9 2.6 0.00 0.00 0.00 34 1017.6
20260503212008 75 236 0.9 4.3 0.00 0.00 0.00 32 1017.7
20260503211521 75 5 1.7 7.0 0.00 0.00 0.00 31 1017.8
20260503211007 75 264 0.0 7.8 0.00 0.00 0.00 31 1017.8
20260503210511 76 322 3.5 8.7 0.00 0.00 0.00 33 1017.8
20260503210003 75 271 2.6 8.7 0.00 0.00 0.00 33 1017.7
20260503205504 75 15 2.6 9.6 0.00 0.00 0.00 31 1017.7
20260503205002 75 350 2.6 11.3 0.00 0.00 0.00 32 1017.8
20260503204510 75 330 1.7 11.3 0.00 0.00 0.00 31 1017.9
20260503204005 75 26 3.5 8.7 0.00 0.00 0.00 31 1017.9
20260503203504 75 107 2.6 8.7 0.00 0.00 0.00 33 1017.9
20260503203025 75 265 3.5 8.7 0.00 0.00 0.00 32 1018.1
20260503202506 75 307 3.5 9.6 0.00 0.00 0.00 32 1018.1
20260503202006 75 296 2.6 10.4 0.00 0.00 0.00 32 1018.1
20260503201522 75 336 6.1 10.4 0.00 0.00 0.00 33 1018.3
20260503201007 75 44 4.3 10.4 0.00 0.00 0.00 34 1018.2
20260503200509 75 84 0.9 8.7 0.00 0.00 0.00 35 1018.3
20260503200024 75 13 2.6 8.7 0.00 0.00 0.00 35 1018.4
20260503195503 74 275 3.5 11.3 0.00 0.00 0.00 34 1018.4
20260503195001 74 341 5.2 11.3 0.00 0.00 0.00 33 1018.6
20260503194513 75 24 4.3 8.7 0.00 0.00 0.00 33 1018.6
20260503194001 75 5 0.9 7.8 0.00 0.00 0.00 32 1018.7
20260503193506 74 168 2.6 8.7 0.00 0.00 0.00 33 1018.8
20260503193018 74 277 3.5 8.7 0.00 0.00 0.00 32 1019.0
20260503192503 74 348 3.5 8.7 0.00 0.00 0.00 35 1018.9
20260503192006 74 49 5.2 8.7 0.00 0.00 0.00 33 1018.9
20260503191520 74 302 3.5 9.6 0.00 0.00 0.00 32 1019.1
20260503191006 74 360 4.3 9.6 0.00 0.00 0.00 34 1019.1
20260503190507 74 59 2.6 7.8 0.00 0.00 0.00 33 1019.3
20260503190023 74 290 2.6 7.8 0.00 0.00 0.00 40 1019.4
20260503185507 74 48 3.5 7.8 0.00 0.00 0.00 35 1019.4
20260503185006 74 79 2.6 7.8 0.00 0.00 0.00 36 1019.4
20260503184508 74 84 1.7 8.7 0.00 0.00 0.00 35 1019.5
20260503184007 73 360 5.2 8.7 0.00 0.00 0.00 33 1019.6
20260503183504 73 317 3.5 8.7 0.00 0.00 0.00 35 1019.6
20260503183012 73 5 0.9 8.7 0.00 0.00 0.00 34 1019.8
20260503182502 73 47 2.6 8.7 0.00 0.00 0.00 33 1019.9
20260503182007 73 345 4.3 9.6 0.00 0.00 0.00 36 1019.9
20260503181520 73 346 7.0 10.4 0.00 0.00 0.00 33 1020.0
20260503181007 73 13 5.2 10.4 0.00 0.00 0.00 37 1019.9
20260503180508 72 114 2.6 7.8 0.00 0.00 0.00 34 1019.9
20260503180029 72 45 3.5 9.6 0.00 0.00 0.00 34 1020.0
20260503175507 72 20 4.3 11.3 0.00 0.00 0.00 35 1020.1
20260503175006 73 348 6.1 11.3 0.00 0.00 0.00 36 1020.1
20260503174524 72 46 4.3 9.6 0.00 0.00 0.00 35 1020.2
20260503174009 72 235 4.3 9.6 0.00 0.00 0.00 37 1020.2
20260503173503 72 341 3.5 8.7 0.00 0.00 0.00 35 1020.2
20260503173020 72 5 2.6 16.5 0.00 0.00 0.00 33 1020.4
20260503172504 72 360 2.6 16.5 0.00 0.00 0.00 38 1020.4
20260503172003 72 44 5.2 15.6 0.00 0.00 0.00 35 1020.3
20260503171521 72 346 3.5 9.6 0.00 0.00 0.00 36 1020.5
20260503171006 72 75 4.3 9.6 0.00 0.00 0.00 35 1020.5
20260503170506 72 5 3.5 14.8 0.00 0.00 0.00 38 1020.6
20260503151003 69 36 3.5 6.1 0.00 0.00 0.00 47 1021.4
20260503150503 69 32 1.7 5.2 0.00 0.00 0.00 47 1021.4
20260503131004 58 66 1.7 3.5 0.00 0.00 0.00 74 1020.7
20260503130502 57 158 0.0 0.0 0.00 0.00 0.00 79 1020.8
20260503110503 43 33 0.0 0.0 0.00 0.13 0.00 95 1019.7
20260503090508 44 331 0.0 0.0 0.00 0.49 0.00 94 1019.0
20260503081525 45 331 0.0 0.0 0.00 0.60 0.00 93 1018.5
20260503081008 45 331 0.0 0.0 0.00 0.66 0.00 93 1018.6
20260503080508 45 331 0.0 0.0 0.00 0.71 0.00 93 1018.6
20260503072507 46 331 0.0 0.0 0.00 0.87 0.00 93 1018.2
20260503072004 46 331 0.0 0.0 0.00 0.90 0.00 93 1018.2
20260503071520 46 331 0.0 0.0 0.00 0.92 0.00 92 1018.2
20260503071007 46 331 0.0 0.0 0.00 0.94 0.00 92 1018.2
20260503070507 46 331 0.0 0.0 0.00 0.94 0.00 91 1018.2
20260503055003 49 331 0.0 0.0 0.00 0.94 0.00 86 1018.1
20260503054511 49 331 0.0 0.0 0.00 0.94 0.00 86 1018.1
20260503054003 49 331 0.0 0.0 0.00 0.94 0.00 87 1018.0
20260503053503 49 331 0.0 0.0 0.00 0.96 0.00 86 1018.1
20260503053013 49 331 0.0 0.0 0.00 0.97 0.00 86 1018.1
20260503052505 49 331 0.0 0.0 0.00 1.00 0.00 88 1018.1
20260503052006 50 331 0.0 0.0 0.00 1.00 0.00 87 1018.1
20260503051516 50 331 0.0 0.0 0.00 1.00 0.00 87 1018.1
20260503051003 50 331 0.0 0.0 0.00 1.01 0.00 86 1018.0
20260503050503 50 331 0.0 0.0 0.00 1.01 0.00 85 1018.0
20260503050012 51 331 0.0 0.0 0.00 1.02 0.00 83 1018.0
20260503045503 51 331 0.0 0.0 0.00 1.03 1.02 83 1017.9
20260503045003 51 331 0.0 0.0 0.00 1.04 1.02 84 1017.9
20260503044522 51 331 0.0 0.0 0.00 1.04 1.02 85 1017.8
20260503044002 52 331 0.0 0.0 0.00 1.08 1.02 86 1017.8
20260503043504 52 331 0.0 0.0 0.00 1.10 1.02 84 1017.8
20260503043015 52 331 0.0 0.0 0.00 1.13 1.02 83 1017.8
20260503042503 53 331 0.0 0.0 0.00 1.15 1.02 82 1017.7
20260503042004 53 331 0.0 0.0 0.00 1.17 1.02 81 1017.6
20260503041512 54 331 0.0 0.0 0.00 1.21 1.02 80 1017.6
20260503041006 54 331 0.0 0.0 0.00 1.26 1.02 79 1017.5
20260503040504 55 331 0.0 0.0 0.00 1.31 1.02 78 1017.5
20260503040012 55 331 0.0 0.0 0.00 1.43 1.02 76 1017.4
20260503035505 55 331 0.0 0.0 0.00 1.51 1.02 75 1017.4
20260503035005 55 336 0.0 1.7 0.00 1.65 1.02 76 1017.4